Year,Month,Day,Hour,Minute,Value (Times are PST for temperature in C)
2011,04,15,00,00,4.20
2011,04,15,00,01,4.20
2011,04,15,00,02,4.10
2011,04,15,00,03,4.10
2011,04,15,00,04,4.10
2011,04,15,00,05,4.10
2011,04,15,00,06,4.10
2011,04,15,00,07,4.10
2011,04,15,00,08,4.00
2011,04,15,00,09,4.00
2011,04,15,00,10,4.00
2011,04,15,00,11,4.00
2011,04,15,00,12,4.00
2011,04,15,00,13,4.00
2011,04,15,00,14,4.00
2011,04,15,00,15,4.00
2011,04,15,00,16,4.00
2011,04,15,00,17,4.00
2011,04,15,00,18,4.00
2011,04,15,00,19,4.00
2011,04,15,00,20,4.10
2011,04,15,00,21,4.10
2011,04,15,00,22,4.10
2011,04,15,00,23,4.10
2011,04,15,00,24,4.10
2011,04,15,00,25,4.10
2011,04,15,00,26,4.10
2011,04,15,00,27,4.10
2011,04,15,00,28,4.10
2011,04,15,00,29,4.10
2011,04,15,00,30,4.10
2011,04,15,00,31,4.10
2011,04,15,00,32,4.10
2011,04,15,00,33,4.10
2011,04,15,00,34,4.00
2011,04,15,00,35,4.00
2011,04,15,00,36,4.10
2011,04,15,00,37,4.10
2011,04,15,00,38,4.10
2011,04,15,00,39,4.10
2011,04,15,00,40,4.10
2011,04,15,00,41,4.10
2011,04,15,00,42,4.20
2011,04,15,00,43,4.20
2011,04,15,00,44,4.20
2011,04,15,00,45,4.20
2011,04,15,00,46,4.20
2011,04,15,00,47,4.20
2011,04,15,00,48,4.20
2011,04,15,00,49,4.30
2011,04,15,00,50,4.40
2011,04,15,00,51,4.40
2011,04,15,00,52,4.40
2011,04,15,00,53,4.40
2011,04,15,00,54,4.40
2011,04,15,00,55,4.40
2011,04,15,00,56,4.50
2011,04,15,00,57,4.50
2011,04,15,00,58,4.50
2011,04,15,00,59,4.50
2011,04,15,01,00,4.50
2011,04,15,01,01,4.60
2011,04,15,01,02,4.60
2011,04,15,01,03,4.60
2011,04,15,01,04,4.60
2011,04,15,01,05,4.60
2011,04,15,01,06,4.60
2011,04,15,01,07,4.60
2011,04,15,01,08,4.70
2011,04,15,01,09,4.70
2011,04,15,01,10,4.70
2011,04,15,01,11,4.70
2011,04,15,01,12,4.70
2011,04,15,01,13,4.70
2011,04,15,01,14,4.70
2011,04,15,01,15,4.70
2011,04,15,01,16,4.70
2011,04,15,01,17,4.70
2011,04,15,01,18,4.70
2011,04,15,01,19,4.70
2011,04,15,01,20,4.70
2011,04,15,01,21,4.70
2011,04,15,01,22,4.70
2011,04,15,01,23,4.70
2011,04,15,01,24,4.70
2011,04,15,01,25,4.70
2011,04,15,01,26,4.60
2011,04,15,01,27,4.60
2011,04,15,01,28,4.60
2011,04,15,01,29,4.60
2011,04,15,01,30,4.60
2011,04,15,01,31,4.50
2011,04,15,01,32,4.50
2011,04,15,01,33,4.50
2011,04,15,01,34,4.50
2011,04,15,01,35,4.40
2011,04,15,01,36,4.40
2011,04,15,01,37,4.40
2011,04,15,01,38,4.40
2011,04,15,01,39,4.40
2011,04,15,01,40,4.40
2011,04,15,01,41,4.40
2011,04,15,01,42,4.40
2011,04,15,01,43,4.40
2011,04,15,01,44,4.40
2011,04,15,01,45,4.40
2011,04,15,01,46,4.50
2011,04,15,01,47,4.50
2011,04,15,01,48,4.50
2011,04,15,01,49,4.50
2011,04,15,01,50,4.50
2011,04,15,01,51,4.50
2011,04,15,01,52,4.50
2011,04,15,01,53,4.50
2011,04,15,01,54,4.50
2011,04,15,01,55,4.60
2011,04,15,01,56,4.60
2011,04,15,01,57,4.60
2011,04,15,01,58,4.60
2011,04,15,01,59,4.60
2011,04,15,02,00,4.50
2011,04,15,02,01,4.50
2011,04,15,02,02,4.50
2011,04,15,02,03,4.50
2011,04,15,02,04,4.40
2011,04,15,02,05,4.40
2011,04,15,02,06,4.30
2011,04,15,02,07,4.30
2011,04,15,02,08,4.30
2011,04,15,02,09,4.30
2011,04,15,02,10,4.20
2011,04,15,02,11,4.20
2011,04,15,02,12,4.20
2011,04,15,02,13,4.10
2011,04,15,02,14,4.10
2011,04,15,02,15,4.10
2011,04,15,02,16,4.10
2011,04,15,02,17,4.10
2011,04,15,02,18,4.10
2011,04,15,02,19,4.10
2011,04,15,02,20,4.10
2011,04,15,02,21,4.10
2011,04,15,02,22,4.10
2011,04,15,02,23,4.00
2011,04,15,02,24,4.00
2011,04,15,02,25,4.00
2011,04,15,02,26,4.00
2011,04,15,02,27,4.00
2011,04,15,02,28,4.00
2011,04,15,02,29,4.00
2011,04,15,02,30,4.00
2011,04,15,02,31,4.00
2011,04,15,02,32,3.90
2011,04,15,02,33,3.90
2011,04,15,02,34,3.90
2011,04,15,02,35,3.90
2011,04,15,02,36,3.90
2011,04,15,02,37,3.80
2011,04,15,02,38,3.80
2011,04,15,02,39,3.80
2011,04,15,02,40,3.90
2011,04,15,02,41,3.90
2011,04,15,02,42,3.90
2011,04,15,02,43,3.90
2011,04,15,02,44,4.00
2011,04,15,02,45,4.00
2011,04,15,02,46,4.00
2011,04,15,02,47,3.90
2011,04,15,02,48,3.90
2011,04,15,02,49,3.90
2011,04,15,02,50,3.80
2011,04,15,02,51,3.80
2011,04,15,02,52,3.70
2011,04,15,02,53,3.70
2011,04,15,02,54,3.60
2011,04,15,02,55,3.60
2011,04,15,02,56,3.60
2011,04,15,02,57,3.50
2011,04,15,02,58,3.50
2011,04,15,02,59,3.50
2011,04,15,03,00,3.40
2011,04,15,03,01,3.40
2011,04,15,03,02,3.40
2011,04,15,03,03,3.40
2011,04,15,03,04,3.40
2011,04,15,03,05,3.40
2011,04,15,03,06,3.50
2011,04,15,03,07,3.40
2011,04,15,03,08,3.40
2011,04,15,03,09,3.40
2011,04,15,03,10,3.40
2011,04,15,03,11,3.40
2011,04,15,03,12,3.40
2011,04,15,03,13,3.30
2011,04,15,03,14,3.30
2011,04,15,03,15,3.30
2011,04,15,03,16,3.30
2011,04,15,03,17,3.30
2011,04,15,03,18,3.30
2011,04,15,03,19,3.20
2011,04,15,03,20,3.20
2011,04,15,03,21,3.10
2011,04,15,03,22,3.00
2011,04,15,03,23,3.00
2011,04,15,03,24,2.90
2011,04,15,03,25,2.90
2011,04,15,03,26,2.80
2011,04,15,03,27,2.80
2011,04,15,03,28,2.80
2011,04,15,03,29,2.80
2011,04,15,03,30,2.80
2011,04,15,03,31,2.80
2011,04,15,03,32,2.80
2011,04,15,03,33,2.80
2011,04,15,03,34,2.80
2011,04,15,03,35,2.80
2011,04,15,03,36,2.80
2011,04,15,03,37,2.80
2011,04,15,03,38,2.80
2011,04,15,03,39,2.80
2011,04,15,03,40,2.80
2011,04,15,03,41,2.80
2011,04,15,03,42,2.80
2011,04,15,03,43,2.80
2011,04,15,03,44,2.80
2011,04,15,03,45,2.80
2011,04,15,03,46,2.80
2011,04,15,03,47,2.80
2011,04,15,03,48,2.80
2011,04,15,03,49,2.80
2011,04,15,03,50,2.80
2011,04,15,03,51,2.80
2011,04,15,03,52,2.80
2011,04,15,03,53,2.70
2011,04,15,03,54,2.70
2011,04,15,03,55,2.70
2011,04,15,03,56,2.70
2011,04,15,03,57,2.70
2011,04,15,03,58,2.70
2011,04,15,03,59,2.70
2011,04,15,04,00,2.70
2011,04,15,04,01,2.70
2011,04,15,04,02,2.70
2011,04,15,04,03,2.70
2011,04,15,04,04,2.70
2011,04,15,04,05,2.70
2011,04,15,04,06,2.70
2011,04,15,04,07,2.70
2011,04,15,04,08,2.70
2011,04,15,04,09,2.70
2011,04,15,04,10,2.60
2011,04,15,04,11,2.60
2011,04,15,04,12,2.60
2011,04,15,04,13,2.60
2011,04,15,04,14,2.60
2011,04,15,04,15,2.60
2011,04,15,04,16,2.60
2011,04,15,04,17,2.60
2011,04,15,04,18,2.50
2011,04,15,04,19,2.50
2011,04,15,04,20,2.50
2011,04,15,04,21,2.50
2011,04,15,04,22,2.40
2011,04,15,04,23,2.40
2011,04,15,04,24,2.40
2011,04,15,04,25,2.40
2011,04,15,04,26,2.40
2011,04,15,04,27,2.40
2011,04,15,04,28,2.40
2011,04,15,04,29,2.50
2011,04,15,04,30,2.50
2011,04,15,04,31,2.50
2011,04,15,04,32,2.50
2011,04,15,04,33,2.50
2011,04,15,04,34,2.50
2011,04,15,04,35,2.50
2011,04,15,04,36,2.40
2011,04,15,04,37,2.40
2011,04,15,04,38,2.40
2011,04,15,04,39,2.30
2011,04,15,04,40,2.30
2011,04,15,04,41,2.30
2011,04,15,04,42,2.30
2011,04,15,04,43,2.20
2011,04,15,04,44,2.20
2011,04,15,04,45,2.20
2011,04,15,04,46,2.20
2011,04,15,04,47,2.20
2011,04,15,04,48,2.20
2011,04,15,04,49,2.10
2011,04,15,04,50,2.10
2011,04,15,04,51,2.10
2011,04,15,04,52,2.10
2011,04,15,04,53,2.10
2011,04,15,04,54,2.00
2011,04,15,04,55,2.00
2011,04,15,04,56,2.00
2011,04,15,04,57,2.00
2011,04,15,04,58,1.90
2011,04,15,04,59,1.90
2011,04,15,05,00,1.90
2011,04,15,05,01,1.90
2011,04,15,05,02,1.90
2011,04,15,05,03,1.90
2011,04,15,05,04,1.90
2011,04,15,05,05,1.90
2011,04,15,05,06,1.90
2011,04,15,05,07,1.90
2011,04,15,05,08,1.90
2011,04,15,05,09,1.90
2011,04,15,05,10,1.90
2011,04,15,05,11,1.90
2011,04,15,05,12,1.90
2011,04,15,05,13,1.90
2011,04,15,05,14,1.90
2011,04,15,05,15,1.90
2011,04,15,05,16,1.90
2011,04,15,05,17,1.90
2011,04,15,05,18,1.90
2011,04,15,05,19,1.90
2011,04,15,05,20,1.90
2011,04,15,05,21,1.90
2011,04,15,05,22,1.90
2011,04,15,05,23,1.90
2011,04,15,05,24,1.90
2011,04,15,05,25,1.90
2011,04,15,05,26,1.90
2011,04,15,05,27,1.90
2011,04,15,05,28,1.90
2011,04,15,05,29,1.90
2011,04,15,05,30,1.90
2011,04,15,05,31,1.90
2011,04,15,05,32,1.90
2011,04,15,05,33,1.90
2011,04,15,05,34,1.90
2011,04,15,05,35,1.90
2011,04,15,05,36,1.90
2011,04,15,05,37,1.90
2011,04,15,05,38,1.90
2011,04,15,05,39,1.90
2011,04,15,05,40,1.90
2011,04,15,05,41,1.90
2011,04,15,05,42,2.00
2011,04,15,05,43,1.90
2011,04,15,05,44,2.00
2011,04,15,05,45,2.00
2011,04,15,05,46,2.00
2011,04,15,05,47,2.00
2011,04,15,05,48,2.10
2011,04,15,05,49,2.10
2011,04,15,05,50,2.10
2011,04,15,05,51,2.10
2011,04,15,05,52,2.10
2011,04,15,05,53,2.10
2011,04,15,05,54,2.10
2011,04,15,05,55,2.10
2011,04,15,05,56,2.10
2011,04,15,05,57,2.10
2011,04,15,05,58,2.20
2011,04,15,05,59,2.20
2011,04,15,06,00,2.20
2011,04,15,06,01,2.20
2011,04,15,06,02,2.20
2011,04,15,06,03,2.20
2011,04,15,06,04,2.30
2011,04,15,06,05,2.30
2011,04,15,06,06,2.30
2011,04,15,06,07,2.30
2011,04,15,06,08,2.30
2011,04,15,06,09,2.30
2011,04,15,06,10,2.30
2011,04,15,06,11,2.30
2011,04,15,06,12,2.30
2011,04,15,06,13,2.30
2011,04,15,06,14,2.30
2011,04,15,06,15,2.30
2011,04,15,06,16,2.30
2011,04,15,06,17,2.30
2011,04,15,06,18,2.30
2011,04,15,06,19,2.30
2011,04,15,06,20,2.30
2011,04,15,06,21,2.30
2011,04,15,06,22,2.40
2011,04,15,06,23,2.30
2011,04,15,06,24,2.40
2011,04,15,06,25,2.40
2011,04,15,06,26,2.40
2011,04,15,06,27,2.40
2011,04,15,06,28,2.40
2011,04,15,06,29,2.40
2011,04,15,06,30,2.40
2011,04,15,06,31,2.50
2011,04,15,06,32,2.50
2011,04,15,06,33,2.50
2011,04,15,06,34,2.50
2011,04,15,06,35,2.60
2011,04,15,06,36,2.60
2011,04,15,06,37,2.70
2011,04,15,06,38,2.70
2011,04,15,06,39,2.70
2011,04,15,06,40,2.70
2011,04,15,06,41,2.70
2011,04,15,06,42,2.80
2011,04,15,06,43,2.80
2011,04,15,06,44,2.80
2011,04,15,06,45,2.80
2011,04,15,06,46,2.80
2011,04,15,06,47,2.90
2011,04,15,06,48,2.90
2011,04,15,06,49,2.90
2011,04,15,06,50,2.90
2011,04,15,06,51,2.90
2011,04,15,06,52,2.90
2011,04,15,06,53,3.00
2011,04,15,06,54,3.10
2011,04,15,06,55,3.10
2011,04,15,06,56,3.20
2011,04,15,06,57,3.20
2011,04,15,06,58,3.30
2011,04,15,06,59,3.40
2011,04,15,07,00,3.40
2011,04,15,07,01,3.50
2011,04,15,07,02,3.60
2011,04,15,07,03,3.60
2011,04,15,07,04,3.60
2011,04,15,07,05,3.70
2011,04,15,07,06,3.70
2011,04,15,07,07,3.80
2011,04,15,07,08,3.80
2011,04,15,07,09,3.80
2011,04,15,07,10,3.80
2011,04,15,07,11,3.90
2011,04,15,07,12,3.90
2011,04,15,07,13,3.90
2011,04,15,07,14,3.90
2011,04,15,07,15,3.90
2011,04,15,07,16,4.00
2011,04,15,07,17,4.00
2011,04,15,07,18,4.00
2011,04,15,07,19,4.10
2011,04,15,07,20,4.10
2011,04,15,07,21,4.10
2011,04,15,07,22,4.10
2011,04,15,07,23,4.10
2011,04,15,07,24,4.20
2011,04,15,07,25,4.20
2011,04,15,07,26,4.20
2011,04,15,07,27,4.20
2011,04,15,07,28,4.30
2011,04,15,07,29,4.30
2011,04,15,07,30,4.30
2011,04,15,07,31,4.40
2011,04,15,07,32,4.40
2011,04,15,07,33,4.50
2011,04,15,07,34,4.50
2011,04,15,07,35,4.60
2011,04,15,07,36,4.60
2011,04,15,07,37,4.70
2011,04,15,07,38,4.70
2011,04,15,07,39,4.70
2011,04,15,07,40,4.70
2011,04,15,07,41,4.80
2011,04,15,07,42,4.80
2011,04,15,07,43,4.80
2011,04,15,07,44,4.80
2011,04,15,07,45,4.80
2011,04,15,07,46,4.80
2011,04,15,07,47,4.80
2011,04,15,07,48,4.80
2011,04,15,07,49,4.90
2011,04,15,07,50,4.90
2011,04,15,07,51,4.90
2011,04,15,07,52,4.90
2011,04,15,07,53,4.90
2011,04,15,07,54,4.90
2011,04,15,07,55,5.00
2011,04,15,07,56,5.00
2011,04,15,07,57,5.00
2011,04,15,07,58,5.10
2011,04,15,07,59,5.10
2011,04,15,08,00,5.10
2011,04,15,08,01,5.10
2011,04,15,08,02,5.10
2011,04,15,08,03,5.20
2011,04,15,08,04,5.20
2011,04,15,08,05,5.20
2011,04,15,08,06,5.30
2011,04,15,08,07,5.30
2011,04,15,08,08,5.40
2011,04,15,08,09,5.40
2011,04,15,08,10,5.50
2011,04,15,08,11,5.60
2011,04,15,08,12,5.60
2011,04,15,08,13,5.70
2011,04,15,08,14,5.70
2011,04,15,08,15,5.70
2011,04,15,08,16,5.70
2011,04,15,08,17,5.70
2011,04,15,08,18,5.70
2011,04,15,08,19,5.70
2011,04,15,08,20,5.70
2011,04,15,08,21,5.70
2011,04,15,08,22,5.80
2011,04,15,08,23,5.80
2011,04,15,08,24,5.80
2011,04,15,08,25,5.80
2011,04,15,08,26,5.90
2011,04,15,08,27,5.90
2011,04,15,08,28,5.90
2011,04,15,08,29,6.00
2011,04,15,08,30,6.10
2011,04,15,08,31,6.10
2011,04,15,08,32,6.20
2011,04,15,08,33,6.20
2011,04,15,08,34,6.20
2011,04,15,08,35,6.30
2011,04,15,08,36,6.30
2011,04,15,08,37,6.40
2011,04,15,08,38,6.50
2011,04,15,08,39,6.60
2011,04,15,08,40,6.60
2011,04,15,08,41,6.70
2011,04,15,08,42,6.60
2011,04,15,08,43,6.60
2011,04,15,08,44,6.60
2011,04,15,08,45,6.60
2011,04,15,08,46,6.60
2011,04,15,08,47,6.50
2011,04,15,08,48,6.40
2011,04,15,08,49,6.40
2011,04,15,08,50,6.40
2011,04,15,08,51,6.30
2011,04,15,08,52,6.30
2011,04,15,08,53,6.30
2011,04,15,08,54,6.30
2011,04,15,08,55,6.30
2011,04,15,08,56,6.30
2011,04,15,08,57,6.30
2011,04,15,08,58,6.30
2011,04,15,08,59,6.30
2011,04,15,09,00,6.40
2011,04,15,09,01,6.50
2011,04,15,09,02,6.60
2011,04,15,09,03,6.70
2011,04,15,09,04,6.80
2011,04,15,09,05,6.80
2011,04,15,09,06,6.80
2011,04,15,09,07,6.80
2011,04,15,09,08,6.80
2011,04,15,09,09,6.90
2011,04,15,09,10,6.90
2011,04,15,09,11,7.00
2011,04,15,09,12,7.00
2011,04,15,09,13,7.10
2011,04,15,09,14,7.20
2011,04,15,09,15,7.20
2011,04,15,09,16,7.30
2011,04,15,09,17,7.40
2011,04,15,09,18,7.50
2011,04,15,09,19,7.60
2011,04,15,09,20,7.60
2011,04,15,09,21,7.50
2011,04,15,09,22,7.40
2011,04,15,09,23,7.30
2011,04,15,09,24,7.30
2011,04,15,09,25,7.20
2011,04,15,09,26,7.10
2011,04,15,09,27,7.10
2011,04,15,09,28,7.10
2011,04,15,09,29,7.10
2011,04,15,09,30,7.10
2011,04,15,09,31,7.20
2011,04,15,09,32,7.30
2011,04,15,09,33,7.50
2011,04,15,09,34,7.60
2011,04,15,09,35,7.60
2011,04,15,09,36,7.60
2011,04,15,09,37,7.60
2011,04,15,09,38,7.50
2011,04,15,09,39,7.50
2011,04,15,09,40,7.40
2011,04,15,09,41,7.40
2011,04,15,09,42,7.30
2011,04,15,09,43,7.30
2011,04,15,09,44,7.20
2011,04,15,09,45,7.20
2011,04,15,09,46,7.20
2011,04,15,09,47,7.20
2011,04,15,09,48,7.20
2011,04,15,09,49,7.20
2011,04,15,09,50,7.20
2011,04,15,09,51,7.20
2011,04,15,09,52,7.20
2011,04,15,09,53,7.20
2011,04,15,09,54,7.20
2011,04,15,09,55,7.30
2011,04,15,09,56,7.30
2011,04,15,09,57,7.30
2011,04,15,09,58,7.30
2011,04,15,09,59,7.30
2011,04,15,10,00,7.30
2011,04,15,10,01,7.30
2011,04,15,10,02,7.30
2011,04,15,10,03,7.20
2011,04,15,10,04,7.20
2011,04,15,10,05,7.10
2011,04,15,10,06,7.10
2011,04,15,10,07,7.00
2011,04,15,10,08,7.00
2011,04,15,10,09,7.00
2011,04,15,10,10,7.00
2011,04,15,10,11,6.90
2011,04,15,10,12,6.90
2011,04,15,10,13,6.90
2011,04,15,10,14,7.00
2011,04,15,10,15,7.00
2011,04,15,10,16,7.00
2011,04,15,10,17,7.00
2011,04,15,10,18,7.00
2011,04,15,10,19,7.00
2011,04,15,10,20,7.10
2011,04,15,10,21,7.10
2011,04,15,10,22,7.10
2011,04,15,10,23,7.10
2011,04,15,10,24,7.20
2011,04,15,10,25,7.20
2011,04,15,10,26,7.20
2011,04,15,10,27,7.10
2011,04,15,10,28,7.10
2011,04,15,10,29,7.10
2011,04,15,10,30,7.10
2011,04,15,10,31,7.10
2011,04,15,10,32,7.10
2011,04,15,10,33,7.00
2011,04,15,10,34,7.00
2011,04,15,10,35,7.00
2011,04,15,10,36,7.00
2011,04,15,10,37,7.00
2011,04,15,10,38,7.00
2011,04,15,10,39,6.90
2011,04,15,10,40,6.90
2011,04,15,10,41,6.90
2011,04,15,10,42,6.90
2011,04,15,10,43,6.90
2011,04,15,10,44,6.90
2011,04,15,10,45,6.90
2011,04,15,10,46,6.90
2011,04,15,10,47,6.80
2011,04,15,10,48,6.80
2011,04,15,10,49,6.80
2011,04,15,10,50,6.80
2011,04,15,10,51,6.80
2011,04,15,10,52,6.80
2011,04,15,10,53,6.80
2011,04,15,10,54,6.80
2011,04,15,10,55,6.90
2011,04,15,10,56,6.90
2011,04,15,10,57,6.90
2011,04,15,10,58,7.00
2011,04,15,10,59,7.00
2011,04,15,11,00,7.00
2011,04,15,11,01,7.00
2011,04,15,11,02,7.00
2011,04,15,11,03,7.10
2011,04,15,11,04,7.10
2011,04,15,11,05,7.10
2011,04,15,11,06,7.10
2011,04,15,11,07,7.10
2011,04,15,11,08,7.10
2011,04,15,11,09,7.20
2011,04,15,11,10,7.20
2011,04,15,11,11,7.20
2011,04,15,11,12,7.20
2011,04,15,11,13,7.20
2011,04,15,11,14,7.20
2011,04,15,11,15,7.20
2011,04,15,11,16,7.20
2011,04,15,11,17,7.20
2011,04,15,11,18,7.30
2011,04,15,11,19,7.30
2011,04,15,11,20,7.40
2011,04,15,11,21,7.40
2011,04,15,11,22,7.50
2011,04,15,11,23,7.50
2011,04,15,11,24,7.60
2011,04,15,11,25,7.60
2011,04,15,11,26,7.60
2011,04,15,11,27,7.60
2011,04,15,11,28,7.60
2011,04,15,11,29,7.60
2011,04,15,11,30,7.60
2011,04,15,11,31,7.50
2011,04,15,11,32,7.40
2011,04,15,11,33,7.30
2011,04,15,11,34,7.30
2011,04,15,11,35,7.30
2011,04,15,11,36,7.30
2011,04,15,11,37,7.30
2011,04,15,11,38,7.30
2011,04,15,11,39,7.40
2011,04,15,11,40,7.40
2011,04,15,11,41,7.40
2011,04,15,11,42,7.40
2011,04,15,11,43,7.40
2011,04,15,11,44,7.40
2011,04,15,11,45,7.40
2011,04,15,11,46,7.40
2011,04,15,11,47,7.50
2011,04,15,11,48,7.50
2011,04,15,11,49,7.60
2011,04,15,11,50,7.60
2011,04,15,11,51,7.60
2011,04,15,11,52,7.60
2011,04,15,11,53,7.60
2011,04,15,11,54,7.50
2011,04,15,11,55,7.50
2011,04,15,11,56,7.50
2011,04,15,11,57,7.40
2011,04,15,11,58,7.40
2011,04,15,11,59,7.40
2011,04,15,12,00,7.40
2011,04,15,12,01,7.40
2011,04,15,12,02,7.40
2011,04,15,12,03,7.40
2011,04,15,12,04,7.40
2011,04,15,12,05,7.50
2011,04,15,12,06,7.50
2011,04,15,12,07,7.60
2011,04,15,12,08,7.60
2011,04,15,12,09,7.70
2011,04,15,12,10,7.70
2011,04,15,12,11,7.70
2011,04,15,12,12,7.70
2011,04,15,12,13,7.70
2011,04,15,12,14,7.70
2011,04,15,12,15,7.70
2011,04,15,12,16,7.70
2011,04,15,12,17,7.70
2011,04,15,12,18,7.80
2011,04,15,12,19,7.80
2011,04,15,12,20,7.80
2011,04,15,12,21,7.90
2011,04,15,12,22,7.90
2011,04,15,12,23,8.00
2011,04,15,12,24,8.00
2011,04,15,12,25,8.00
2011,04,15,12,26,8.00
2011,04,15,12,27,8.00
2011,04,15,12,28,8.10
2011,04,15,12,29,8.10
2011,04,15,12,30,8.20
2011,04,15,12,31,8.20
2011,04,15,12,32,8.30
2011,04,15,12,33,8.40
2011,04,15,12,34,8.50
2011,04,15,12,35,8.50
2011,04,15,12,36,8.50
2011,04,15,12,37,8.50
2011,04,15,12,38,8.40
2011,04,15,12,39,8.40
2011,04,15,12,40,8.50
2011,04,15,12,41,8.50
2011,04,15,12,42,8.40
2011,04,15,12,43,8.40
2011,04,15,12,44,8.40
2011,04,15,12,45,8.40
2011,04,15,12,46,8.40
2011,04,15,12,47,8.40
2011,04,15,12,48,8.50
2011,04,15,12,49,8.50
2011,04,15,12,50,8.50
2011,04,15,12,51,8.50
2011,04,15,12,52,8.50
2011,04,15,12,53,8.50
2011,04,15,12,54,8.40
2011,04,15,12,55,8.40
2011,04,15,12,56,8.40
2011,04,15,12,57,8.30
2011,04,15,12,58,8.30
2011,04,15,12,59,8.30
2011,04,15,13,00,8.30
2011,04,15,13,01,8.30
2011,04,15,13,02,8.20
2011,04,15,13,03,8.20
2011,04,15,13,04,8.20
2011,04,15,13,05,8.20
2011,04,15,13,06,8.20
2011,04,15,13,07,8.20
2011,04,15,13,08,8.20
2011,04,15,13,09,8.20
2011,04,15,13,10,8.20
2011,04,15,13,11,8.20
2011,04,15,13,12,8.20
2011,04,15,13,13,8.20
2011,04,15,13,14,8.20
2011,04,15,13,15,8.30
2011,04,15,13,16,8.30
2011,04,15,13,17,8.30
2011,04,15,13,18,8.30
2011,04,15,13,19,8.30
2011,04,15,13,20,8.30
2011,04,15,13,21,8.30
2011,04,15,13,22,8.30
2011,04,15,13,23,8.30
2011,04,15,13,24,8.30
2011,04,15,13,25,8.40
2011,04,15,13,26,8.40
2011,04,15,13,27,8.40
2011,04,15,13,28,8.40
2011,04,15,13,29,8.40
2011,04,15,13,30,8.40
2011,04,15,13,31,8.40
2011,04,15,13,32,8.30
2011,04,15,13,33,8.30
2011,04,15,13,34,8.30
2011,04,15,13,35,8.40
2011,04,15,13,36,8.40
2011,04,15,13,37,8.50
2011,04,15,13,38,8.50
2011,04,15,13,39,8.60
2011,04,15,13,40,8.60
2011,04,15,13,41,8.60
2011,04,15,13,42,8.60
2011,04,15,13,43,8.60
2011,04,15,13,44,8.60
2011,04,15,13,45,8.60
2011,04,15,13,46,8.60
2011,04,15,13,47,8.70
2011,04,15,13,48,8.70
2011,04,15,13,49,8.70
2011,04,15,13,50,8.70
2011,04,15,13,51,8.70
2011,04,15,13,52,8.70
2011,04,15,13,53,8.70
2011,04,15,13,54,8.70
2011,04,15,13,55,8.80
2011,04,15,13,56,8.80
2011,04,15,13,57,8.90
2011,04,15,13,58,8.90
2011,04,15,13,59,8.90
2011,04,15,14,00,8.90
2011,04,15,14,01,9.00
2011,04,15,14,02,9.00
2011,04,15,14,03,9.10
2011,04,15,14,04,9.10
2011,04,15,14,05,9.10
2011,04,15,14,06,9.10
2011,04,15,14,07,9.00
2011,04,15,14,08,8.90
2011,04,15,14,09,8.90
2011,04,15,14,10,8.80
2011,04,15,14,11,8.80
2011,04,15,14,12,8.80
2011,04,15,14,13,8.70
2011,04,15,14,14,8.70
2011,04,15,14,15,8.70
2011,04,15,14,16,8.70
2011,04,15,14,17,8.70
2011,04,15,14,18,8.80
2011,04,15,14,19,8.80
2011,04,15,14,20,8.70
2011,04,15,14,21,8.70
2011,04,15,14,22,8.70
2011,04,15,14,23,8.70
2011,04,15,14,24,8.70
2011,04,15,14,25,8.60
2011,04,15,14,26,8.60
2011,04,15,14,27,8.50
2011,04,15,14,28,8.50
2011,04,15,14,29,8.40
2011,04,15,14,30,8.40
2011,04,15,14,31,8.50
2011,04,15,14,32,8.50
2011,04,15,14,33,8.60
2011,04,15,14,34,8.60
2011,04,15,14,35,8.60
2011,04,15,14,36,8.60
2011,04,15,14,37,8.60
2011,04,15,14,38,8.60
2011,04,15,14,39,8.60
2011,04,15,14,40,8.60
2011,04,15,14,41,8.60
2011,04,15,14,42,8.60
2011,04,15,14,43,8.60
2011,04,15,14,44,8.60
2011,04,15,14,45,8.60
2011,04,15,14,46,8.50
2011,04,15,14,47,8.50
2011,04,15,14,48,8.50
2011,04,15,14,49,8.40
2011,04,15,14,50,8.40
2011,04,15,14,51,8.40
2011,04,15,14,52,8.40
2011,04,15,14,53,8.40
2011,04,15,14,54,8.40
2011,04,15,14,55,8.40
2011,04,15,14,56,8.40
2011,04,15,14,57,8.40
2011,04,15,14,58,8.40
2011,04,15,14,59,8.40
2011,04,15,15,00,8.50
2011,04,15,15,01,8.60
2011,04,15,15,02,8.60
2011,04,15,15,03,8.60
2011,04,15,15,04,8.60
2011,04,15,15,05,8.50
2011,04,15,15,06,8.50
2011,04,15,15,07,8.40
2011,04,15,15,08,8.40
2011,04,15,15,09,8.40
2011,04,15,15,10,8.40
2011,04,15,15,11,8.40
2011,04,15,15,12,8.40
2011,04,15,15,13,8.40
2011,04,15,15,14,8.40
2011,04,15,15,15,8.40
2011,04,15,15,16,8.40
2011,04,15,15,17,8.40
2011,04,15,15,18,8.50
2011,04,15,15,19,8.50
2011,04,15,15,20,8.50
2011,04,15,15,21,8.50
2011,04,15,15,22,8.40
2011,04,15,15,23,8.40
2011,04,15,15,24,8.30
2011,04,15,15,25,8.30
2011,04,15,15,26,8.30
2011,04,15,15,27,8.30
2011,04,15,15,28,8.30
2011,04,15,15,29,8.30
2011,04,15,15,30,8.30
2011,04,15,15,31,8.30
2011,04,15,15,32,8.20
2011,04,15,15,33,8.20
2011,04,15,15,34,8.20
2011,04,15,15,35,8.20
2011,04,15,15,36,8.30
2011,04,15,15,37,8.30
2011,04,15,15,38,8.30
2011,04,15,15,39,8.40
2011,04,15,15,40,8.40
2011,04,15,15,41,8.50
2011,04,15,15,42,8.60
2011,04,15,15,43,8.60
2011,04,15,15,44,8.60
2011,04,15,15,45,8.60
2011,04,15,15,46,8.60
2011,04,15,15,47,8.60
2011,04,15,15,48,8.60
2011,04,15,15,49,8.60
2011,04,15,15,50,8.60
2011,04,15,15,51,8.60
2011,04,15,15,52,8.70
2011,04,15,15,53,8.70
2011,04,15,15,54,8.70
2011,04,15,15,55,8.60
2011,04,15,15,56,8.60
2011,04,15,15,57,8.60
2011,04,15,15,58,8.60
2011,04,15,15,59,8.60
2011,04,15,16,00,8.70
2011,04,15,16,01,8.70
2011,04,15,16,02,8.60
2011,04,15,16,03,8.60
2011,04,15,16,04,8.60
2011,04,15,16,05,8.50
2011,04,15,16,06,8.50
2011,04,15,16,07,8.50
2011,04,15,16,08,8.40
2011,04,15,16,09,8.30
2011,04,15,16,10,8.30
2011,04,15,16,11,8.20
2011,04,15,16,12,8.20
2011,04,15,16,13,8.20
2011,04,15,16,14,8.20
2011,04,15,16,15,8.20
2011,04,15,16,16,8.20
2011,04,15,16,17,8.20
2011,04,15,16,18,8.20
2011,04,15,16,19,8.10
2011,04,15,16,20,8.10
2011,04,15,16,21,8.10
2011,04,15,16,22,8.10
2011,04,15,16,23,8.10
2011,04,15,16,24,8.10
2011,04,15,16,25,8.10
2011,04,15,16,26,8.10
2011,04,15,16,27,8.20
2011,04,15,16,28,8.20
2011,04,15,16,29,8.20
2011,04,15,16,30,8.20
2011,04,15,16,31,8.20
2011,04,15,16,32,8.30
2011,04,15,16,33,8.30
2011,04,15,16,34,8.30
2011,04,15,16,35,8.30
2011,04,15,16,36,8.30
2011,04,15,16,37,8.20
2011,04,15,16,38,8.20
2011,04,15,16,39,8.20
2011,04,15,16,40,8.20
2011,04,15,16,41,8.20
2011,04,15,16,42,8.20
2011,04,15,16,43,8.20
2011,04,15,16,44,8.20
2011,04,15,16,45,8.10
2011,04,15,16,46,8.10
2011,04,15,16,47,8.20
2011,04,15,16,48,8.20
2011,04,15,16,49,8.20
2011,04,15,16,50,8.20
2011,04,15,16,51,8.20
2011,04,15,16,52,8.20
2011,04,15,16,53,8.20
2011,04,15,16,54,8.20
2011,04,15,16,55,8.20
2011,04,15,16,56,8.20
2011,04,15,16,57,8.20
2011,04,15,16,58,8.20
2011,04,15,16,59,8.20
2011,04,15,17,00,8.20
2011,04,15,17,01,8.20
2011,04,15,17,02,8.20
2011,04,15,17,03,8.20
2011,04,15,17,04,8.20
2011,04,15,17,05,8.20
2011,04,15,17,06,8.20
2011,04,15,17,07,8.20
2011,04,15,17,08,8.20
2011,04,15,17,09,8.20
2011,04,15,17,10,8.20
2011,04,15,17,11,8.20
2011,04,15,17,12,8.20
2011,04,15,17,13,8.30
2011,04,15,17,14,8.30
2011,04,15,17,15,8.30
2011,04,15,17,16,8.20
2011,04,15,17,17,8.20
2011,04,15,17,18,8.20
2011,04,15,17,19,8.20
2011,04,15,17,20,8.20
2011,04,15,17,21,8.20
2011,04,15,17,22,8.20
2011,04,15,17,23,8.20
2011,04,15,17,24,8.20
2011,04,15,17,25,8.20
2011,04,15,17,26,8.20
2011,04,15,17,27,8.20
2011,04,15,17,28,8.20
2011,04,15,17,29,8.20
2011,04,15,17,30,8.20
2011,04,15,17,31,8.20
2011,04,15,17,32,8.20
2011,04,15,17,33,8.20
2011,04,15,17,34,8.10
2011,04,15,17,35,8.10
2011,04,15,17,36,8.10
2011,04,15,17,37,8.10
2011,04,15,17,38,8.10
2011,04,15,17,39,8.10
2011,04,15,17,40,8.10
2011,04,15,17,41,8.10
2011,04,15,17,42,8.10
2011,04,15,17,43,8.10
2011,04,15,17,44,8.20
2011,04,15,17,45,8.20
2011,04,15,17,46,8.20
2011,04,15,17,47,8.20
2011,04,15,17,48,8.20
2011,04,15,17,49,8.20
2011,04,15,17,50,8.20
2011,04,15,17,51,8.10
2011,04,15,17,52,8.10
2011,04,15,17,53,8.10
2011,04,15,17,54,8.00
2011,04,15,17,55,8.00
2011,04,15,17,56,8.00
2011,04,15,17,57,7.90
2011,04,15,17,58,7.90
2011,04,15,17,59,7.90
2011,04,15,18,00,7.90
2011,04,15,18,01,7.80
2011,04,15,18,02,7.80
2011,04,15,18,03,7.80
2011,04,15,18,04,7.80
2011,04,15,18,05,7.80
2011,04,15,18,06,7.80